Location: Oshawa
(43.9000°N, 78.8670°W)
Time: 19:49:16
(UTC-04:00)

Cosmos 839 Rocket - Visible Passes

Search period start: 24 October 2014 00:00
Search period end: 02 November 2014 23:00
Orbit: 968 x 2084 km, 65.9° (Epoch: 21 October)

Date Brightness Start Highest point End Pass type
(mag) Time Alt. Az. Time Alt. Az. Time Alt. Az.
24 Oct 6.9 04:06:45 10° SE 04:09:53 13° ESE 04:12:50 10° E visible
24 Oct 4.4 06:01:30 10° SSW 06:09:09 79° ESE 06:15:32 10° NE visible
25 Oct 5.0 05:19:54 10° S 05:27:19 52° ESE 05:33:32 10° NE visible
26 Oct 5.6 04:39:11 11° S 04:45:32 34° ESE 04:51:18 10° NE visible
26 Oct 4.4 06:38:22 10° SW 06:45:24 49° NW 06:51:29 10° NNE visible
27 Oct 6.2 04:00:30 16° SE 04:03:51 21° ESE 04:08:40 10° ENE visible
27 Oct 4.1 05:57:15 16° SW 06:03:24 72° NW 06:09:43 10° NNE visible
28 Oct 6.7 03:21:17 12° ESE 03:22:16 13° ESE 03:24:58 10° E visible
28 Oct 4.3 05:18:00 34° SSW 05:21:30 78° ESE 05:27:51 10° NE visible
28 Oct 5.2 07:16:40 10° W 07:22:07 24° NW 07:27:08 10° NNE visible
29 Oct 4.8 04:38:26 46° SSE 04:39:40 51° ESE 04:45:50 10° NE visible
29 Oct 4.8 06:35:08 16° WSW 06:39:51 34° NW 06:45:30 10° NNE visible
30 Oct 5.6 03:58:38 32° E 03:58:38 32° E 04:03:35 10° NE visible
30 Oct 4.4 05:55:19 35° W 05:57:44 49° NW 06:03:49 10° NNE visible
31 Oct 6.4 03:18:41 17° E 03:18:41 17° E 03:20:56 10° ENE visible
31 Oct 4.0 05:15:21 71° W 05:15:44 73° NW 05:22:03 10° NNE visible
31 Oct 5.5 07:12:30 10° WNW 07:16:53 18° NNW 07:21:01 10° N visible
01 Nov 4.6 04:35:15 57° NE 04:35:15 57° NE 04:40:10 10° NE visible
01 Nov 5.2 06:31:54 20° WNW 06:34:27 24° NW 06:39:28 10° NNE visible
02 Nov 5.7 02:55:03 30° ENE 02:55:03 30° ENE 02:58:09 10° NE visible
02 Nov 4.8 04:51:42 34° NW 04:52:11 34° NW 04:57:50 10° NNE visible
